Theta_e
294 295 295 295 295 296 295 296 297 298 299 300 302 302 302 302 303 304 305 308 309 312 319 330 334 339 342 344 345 345 345 345 344 343 343 344 343 341 339 338 338 338 337
292 292 292 293 293 293 293 293 294 294 296 298 298 299 300 301 302 303 303 304 308 308 311 317 331 334 338 342 344 345 345 345 343 341 342 342 341 340 338 337 337 337 336
291 291 291 291 291 291 292 292 292 293 293 294 295 296 298 300 301 302 303 303 304 307 309 311 315 330 334 337 342 343 344 345 342 341 341 341 340 339 338 336 336 336 336
290 290 290 290 290 290 291 291 291 291 291 292 292 294 296 297 298 300 301 302 303 304 307 309 311 320 331 334 337 342 343 344 343 341 340 340 340 339 337 336 336 335 336
289 288 289 289 289 289 289 289 289 289 289 290 291 292 293 294 296 297 299 300 301 303 304 306 308 309 317 331 334 338 341 342 342 341 339 339 339 339 337 336 335 335 335
288 288 288 288 288 288 288 288 288 289 288 289 289 289 292 294 296 297 298 299 301 302 303 304 307 307 309 322 332 335 340 341 341 340 340 339 339 338 336 335 335 335 334
287 287 287 287 287 287 287 287 287 286 287 288 287 288 290 293 295 296 298 300 300 301 303 304 306 308 309 315 329 334 337 340 340 340 339 340 339 338 336 335 335 334 334
286 285 285 286 286 286 286 286 286 285 286 287 283 284 286 289 297 295 295 295 298 301 302 304 305 308 310 314 323 329 333 336 338 339 339 338 339 338 337 336 335 334 334
286 285 285 285 285 285 285 285 285 284 283 285 285 283 283 284 286 291 292 293 294 297 299 301 303 306 311 312 314 324 325 327 331 336 338 338 339 338 337 336 335 334 334
285 285 284 284 285 285 284 285 284 284 283 281 284 284 284 284 281 282 288 290 292 292 296 299 300 301 304 309 307 313 317 321 324 329 334 336 338 339 337 336 335 334 334
284 284 284 284 284 284 284 284 283 283 283 282 282 282 282 282 283 280 278 284 289 292 293 295 299 301 304 306 306 305 308 319 322 323 326 330 333 336 337 336 335 334 334
283 283 283 283 283 283 283 283 283 282 282 282 282 281 280 278 281 281 281 282 282 286 290 293 298 299 301 303 302 300 303 305 317 321 322 325 328 331 334 335 335 333 333
281 282 282 282 282 282 282 282 282 281 281 281 281 280 281 281 281 280 278 276 278 281 284 288 292 298 301 302 302 298 300 304 304 317 320 321 324 327 327 332 332 331 330
280 281 280 281 281 281 281 281 280 280 281 280 280 280 280 280 280 279 277 276 275 277 282 284 292 296 299 300 300 298 301 301 304 307 316 321 322 324 322 329 329 328 327
279 279 280 279 280 280 280 279 279 279 280 280 279 279 279 280 280 279 279 278 275 271 274 282 286 293 298 300 300 301 301 301 302 303 308 320 321 321 323 325 326 326 327
278 278 278 278 278 278 278 278 278 278 278 278 278 277 278 278 278 278 278 278 277 276 274 280 282 290 295 297 298 299 302 297 300 302 301 317 319 320 321 323 324 325 326
277 277 277 277 277 277 277 276 276 276 275 275 276 276 276 276 276 277 277 277 276 276 273 276 284 288 288 294 297 298 301 299 300 300 301 313 317 317 319 320 321 322 323
277 276 276 275 275 275 275 275 274 274 274 273 273 273 274 275 274 275 276 275 276 276 275 275 280 283 285 292 297 296 298 299 301 301 302 305 315 315 317 318 319 318 319
275 275 275 274 274 273 273 274 273 273 273 273 273 273 273 273 274 275 275 275 275 276 277 277 280 284 287 290 294 296 296 297 300 298 301 300 312 314 315 316 316 315 314
274 274 273 273 273 273 273 273 272 272 273 273 274 275 275 275 274 274 275 275 276 276 276 275 278 282 284 289 293 289 291 294 296 299 300 301 310 311 313 314 313 311 311
272 272 272 272 272 272 272 272 272 273 273 274 274 275 276 276 277 277 276 275 275 275 275 276 277 280 284 284 287 291 290 291 293 296 297 301 313 314 314 312 310 308 311
271 271 271 271 271 271 272 274 274 274 273 273 273 274 275 276 276 278 279 280 279 276 274 275 277 279 282 287 288 289 289 288 286 296 297 300 314 313 316 316 311 310 311
270 270 270 270 270 270 273 274 274 274 274 273 273 273 274 275 275 276 278 280 280 281 281 279 276 278 281 284 287 287 287 286 286 291 294 300 311 311 314 315 308 309 310
269 269 269 268 269 270 272 273 274 274 273 273 274 274 273 273 275 275 275 276 278 279 279 279 279 281 283 285 287 289 288 286 286 287 291 289 309 309 312 314 308 309 309
268 267 268 268 267 268 271 273 274 272 272 273 274 274 274 274 275 277 275 275 277 278 280 280 281 282 283 286 287 286 285 284 283 286 291 293 305 306 308 309 309 309 308
266 268 267 267 267 267 271 273 273 273 272 273 274 274 275 275 276 277 275 276 274 278 278 278 279 280 283 285 287 287 286 283 284 284 290 300 303 300 297 302 308 308 309
Wind_Speed
6 6 6 6 7 7 8 8 8 9 10 10 10 11 12 13 13 9 8 13 17 21 22 24 26 26 27 24 23 25 26 27 26 27 29 27 27 27 26 25 24 23 22
5 5 5 6 6 7 8 8 9 10 10 11 12 12 13 13 13 14 11 12 17 21 23 24 26 28 29 28 25 25 28 29 28 29 31 28 28 28 28 26 25 24 24
5 6 6 6 7 8 10 8 9 9 9 10 13 12 12 13 13 14 13 12 13 17 22 24 27 28 29 30 28 26 28 30 32 31 33 32 30 29 29 28 27 26 25
5 5 5 6 7 8 8 8 9 9 10 10 11 11 11 13 16 16 14 13 12 12 14 22 24 27 28 31 32 29 27 30 32 34 34 34 32 31 30 30 29 28 27
5 5 5 5 7 6 7 7 9 9 10 11 12 12 13 14 14 13 16 17 17 15 12 18 22 25 27 30 33 32 30 29 32 35 36 36 34 33 32 31 30 29 28
4 5 5 6 7 6 6 7 9 8 10 11 13 14 12 13 13 12 14 13 13 16 16 18 14 14 26 29 33 34 33 31 31 35 35 36 34 35 34 33 32 31 30
5 5 5 6 6 6 8 8 9 10 10 10 12 12 13 15 12 11 9 10 13 13 15 15 12 11 13 30 29 34 35 33 32 34 38 38 37 37 36 35 34 33 31
5 6 7 7 7 6 8 8 8 8 8 6 8 11 12 13 1 11 14 14 16 13 14 15 17 17 16 14 20 30 35 35 34 32 37 41 40 39 38 37 37 35 34
6 7 8 8 7 7 7 8 8 10 8 8 7 4 8 9 18 7 12 13 16 13 13 15 18 18 18 16 22 24 30 33 34 33 35 40 42 44 41 40 39 38 36
8 7 8 8 8 7 8 7 6 8 9 10 7 5 10 11 8 20 9 14 17 18 18 14 16 18 19 15 20 25 23 29 32 35 34 38 43 43 42 42 41 40 39
7 8 9 9 8 7 9 10 10 10 8 10 9 9 11 11 14 12 20 18 14 14 15 16 16 15 18 16 14 18 23 30 32 33 33 34 40 45 46 46 44 43 41
6 9 9 8 9 9 10 9 11 13 12 12 11 12 12 12 11 12 15 22 25 18 16 16 17 16 15 16 16 22 24 24 31 32 33 35 38 40 52 49 46 45 43
7 8 9 9 8 9 11 11 12 14 14 13 15 13 13 13 13 14 15 18 21 18 15 17 17 18 15 13 15 21 22 24 25 31 32 33 33 40 30 53 50 46 43
7 9 9 10 11 12 12 13 12 12 14 14 19 16 14 13 13 14 16 15 19 20 17 23 14 15 15 14 18 19 17 24 23 28 32 32 33 35 34 31 44 45 45
7 10 11 11 11 12 13 14 12 15 15 16 17 18 16 13 14 14 15 15 17 21 22 16 17 18 16 14 17 15 16 19 17 20 31 34 34 35 36 32 39 42 44
10 10 10 11 12 13 14 15 14 15 16 14 13 18 17 14 16 13 15 15 17 18 22 15 19 18 16 17 15 13 15 15 23 26 29 34 34 38 39 40 40 43 43
9 9 10 11 13 14 14 15 16 18 18 19 18 19 20 20 15 14 14 15 16 16 20 21 17 19 23 25 17 14 15 14 14 21 21 36 37 39 40 40 39 38 42
8 9 10 12 13 14 15 16 17 16 18 20 20 21 20 15 20 18 15 19 17 18 17 24 17 18 19 24 17 16 12 12 11 13 22 29 38 39 41 40 41 42 44
9 10 11 12 14 15 15 16 17 18 19 19 20 21 20 20 19 16 17 16 16 15 17 16 18 15 16 16 15 14 14 13 12 12 17 22 36 37 40 41 43 43 41
9 10 11 12 14 15 16 16 16 18 20 19 21 20 20 21 22 21 18 19 18 17 17 17 16 15 12 11 11 11 10 6 8 8 13 22 31 39 39 41 41 43 44
9 10 11 12 13 13 11 15 18 20 21 21 20 20 20 22 30 29 17 18 19 17 15 15 15 14 13 12 12 10 10 8 10 6 10 17 19 19 24 38 38 46 46
9 10 11 12 13 11 20 24 24 19 21 21 21 20 20 24 25 35 36 38 31 20 19 16 15 15 16 11 8 10 7 6 8 5 9 20 16 17 20 23 40 48 50
8 10 11 12 14 15 23 26 29 19 20 20 21 20 19 16 23 21 26 32 34 37 35 22 21 20 16 13 9 6 7 8 10 8 9 22 14 16 18 23 43 45 43
8 9 11 12 14 14 24 27 30 20 19 21 20 21 22 23 22 23 22 23 23 22 22 18 21 20 20 16 14 11 9 7 10 11 12 17 12 15 17 18 44 49 47
7 9 10 12 14 16 26 28 27 19 19 21 20 21 21 22 28 33 23 22 25 19 22 32 34 34 36 31 23 10 9 9 11 13 11 17 9 11 14 16 22 47 44
7 8 11 12 16 15 22 27 26 15 20 17 20 20 27 28 35 35 23 18 22 17 16 16 16 21 26 22 27 18 9 10 10 11 17 15 11 8 7 8 19 18 19
Wind_Direction
11 359 354 349 343 341 339 333 332 328 324 319 313 307 305 303 299 295 289 288 284 287 285 282 276 275 266 261 254 244 236 226 214 205 200 194 188 181 180 182 181 180 179
4 352 342 339 337 338 336 329 332 328 324 320 311 310 303 297 292 291 288 292 286 281 280 277 277 269 270 262 257 247 242 230 220 211 200 196 191 186 183 184 184 184 181
348 344 341 339 338 330 326 329 329 322 317 317 312 309 302 296 292 288 287 284 289 281 272 274 270 271 263 266 259 254 243 238 224 212 205 195 191 188 186 184 184 184 182
349 340 336 333 334 325 329 330 327 324 321 316 310 304 298 293 289 285 282 280 276 280 281 273 270 268 265 258 260 257 250 240 233 218 206 199 191 189 187 185 185 185 180
342 327 323 321 317 316 319 322 322 320 316 312 309 306 297 289 283 279 280 278 278 275 277 277 270 265 271 261 254 254 251 246 237 227 212 201 191 190 186 186 185 185 181
308 312 312 311 302 299 304 317 312 316 307 311 311 299 291 287 278 278 277 280 278 278 280 279 277 264 258 257 253 251 250 248 242 232 219 202 192 192 188 187 186 184 183
302 315 304 295 291 300 310 308 312 316 320 330 312 320 298 274 263 261 273 281 281 277 276 278 277 273 268 254 248 246 245 245 243 237 225 206 195 190 188 188 188 187 184
308 300 291 287 291 301 300 306 318 317 315 340 323 299 322 310 179 326 302 286 281 287 286 278 279 281 278 273 253 239 242 242 241 239 231 216 198 190 188 189 188 189 186
287 277 279 283 295 294 298 307 316 316 309 310 310 297 313 302 327 276 311 290 285 283 277 281 278 277 283 271 265 251 236 236 238 237 233 224 207 192 188 187 190 187 186
280 283 290 294 300 297 291 297 299 294 294 295 305 257 257 283 305 312 294 303 295 280 276 275 277 273 267 270 287 270 244 226 231 236 231 226 213 201 187 188 191 189 187
305 303 288 288 284 284 285 289 291 288 283 281 279 276 271 265 264 265 288 297 289 290 296 282 262 261 261 260 271 270 310 249 226 227 231 229 221 203 189 188 189 189 187
276 263 268 278 278 279 282 287 289 284 279 275 272 268 264 260 260 258 260 278 286 284 285 284 281 264 260 253 259 267 272 282 267 225 223 227 219 228 187 187 189 187 187
267 271 272 278 280 285 288 287 283 277 275 274 273 270 264 258 263 264 263 265 274 281 276 271 263 269 260 255 263 265 267 275 288 259 224 222 221 214 236 186 183 184 183
269 278 277 279 280 285 287 285 281 276 276 275 272 267 267 259 255 254 257 262 272 272 262 269 265 260 260 254 254 255 259 266 269 284 261 220 216 216 215 218 179 181 181
265 276 276 280 289 286 284 283 277 276 274 273 271 270 266 263 257 255 256 258 264 274 273 280 271 262 261 251 252 252 257 254 262 301 291 213 206 202 201 194 185 187 181
264 270 282 289 291 290 287 282 280 277 275 273 273 272 269 266 263 258 258 256 251 259 275 265 264 281 279 270 258 252 262 255 268 272 312 219 204 200 199 193 194 187 184
275 285 297 295 288 285 282 279 278 282 280 279 276 275 273 270 265 262 257 258 262 262 266 270 278 265 267 273 262 248 247 254 257 259 292 236 204 200 194 192 188 186 184
288 295 292 288 288 288 285 283 284 283 283 284 283 279 275 271 266 265 261 261 259 260 268 277 270 270 268 282 268 276 258 244 253 253 255 279 202 199 195 189 184 182 176
291 291 291 289 288 286 287 286 286 287 286 284 282 278 275 271 269 265 262 263 263 262 261 265 272 253 258 268 274 263 256 255 257 261 262 279 210 190 186 181 180 172 172
292 288 287 287 288 291 289 292 293 292 287 282 280 274 271 266 263 263 262 262 264 265 267 261 265 271 268 264 264 266 286 240 247 258 257 272 221 189 184 181 180 176 171
287 287 291 287 288 291 292 300 297 294 291 287 284 279 274 269 268 264 259 258 258 259 262 265 259 271 260 260 264 277 272 292 285 257 266 265 202 181 185 186 181 176 173
284 291 291 295 299 298 301 303 301 296 297 292 290 284 279 276 271 270 266 261 255 256 256 260 271 262 270 263 259 266 270 273 290 210 269 287 192 183 185 180 181 178 176
302 297 297 304 305 304 303 307 306 296 294 295 292 290 285 277 274 270 274 271 266 263 256 259 257 260 265 272 277 257 269 278 273 293 282 265 179 179 182 183 174 171 168
299 303 306 306 304 303 308 309 304 302 296 290 291 291 287 283 275 273 270 266 266 251 251 255 256 257 261 262 270 254 273 273 286 266 260 281 175 175 175 175 172 169 169
306 301 301 308 306 300 306 306 311 305 291 295 290 287 281 279 277 278 275 270 270 248 247 253 257 253 256 264 255 278 258 267 275 283 262 263 172 158 167 168 170 166 165
298 304 312 308 296 292 300 313 312 303 300 300 294 291 289 287 286 282 279 280 277 258 252 254 254 258 260 255 251 245 253 260 284 301 274 241 150 143 121 178 163 158 159